Regional Weather Roundup
Issued by NWS

Home | Current Version | Previous Version | Text Only | Print | Product List | Glossary Off
Versions: 1 2 3 4 5 6 7 8 9 10 11 12 13 14 15 16 17 18 19 20 21 22 23 24 25 26 27 28 29 30 31 32 33 34 35 36 37 38 39 40 41 42 43 44 45 46 47 48 49 50

000
ASUS43 KMKX 281859
RWRWI

WISCONSIN REGIONAL WEATHER ROUNDUP
NATIONAL WEATHER SERVICE MILWAUKEE/SULLIVAN WI
100 PM CST WED JAN 28 2015

NOTE: "FAIR" INDICATES FEW OR NO CLOUDS BELOW 12,000 FEET WITH NO
SIGNIFICANT WEATHER AND/OR OBSTRUCTIONS TO VISIBILITY.

WIZ001-002-006>008-014>016-023>028-282000-
NORTHWEST WISCONSIN

CITY           SKY/WX    TMP DP  RH WIND       PRES   REMARKS
SUPERIOR ARPT  CLOUDY    30  24  78 S7        29.92F WCI  23
ASHLAND        PTSUNNY   32  23  69 S7        29.93F WCI  26
HAYWARD        CLOUDY    28  22  78 S14       29.91F HAZE    WCI  17
SIREN          CLOUDY    29  24  79 S12       29.91F HAZE    WCI  20
CUMBERLAND     CLOUDY    27  23  86 SE16      29.93F FOG     WCI  14
RICE LAKE      CLOUDY    28  24  86 SE12G17   29.96F FOG     WCI  17
CHETEK         CLOUDY    28  24  86 SE15G22   29.96F FOG     WCI  16
LADYSMITH      CLOUDY    28  24  83 SE10G17   29.98F FOG     WCI  19
EAU CLAIRE     NOT AVBL
MENOMONIE      CLOUDY    29  25  83 SE13      29.96F FOG     WCI  19
NEW RICHMOND   CLOUDY    28  24  84 SE12G17   29.92F FOG     WCI  18
OSCEOLA        CLOUDY    29  26  86 SE15      29.94F FOG     WCI  18
$$

WIZ003>005-009-010-017-018-282000-
NORTH CENTRAL WISCONSIN

CITY           SKY/WX    TMP DP  RH WIND       PRES   REMARKS
MANITOWISH WTR CLOUDY    26  21  83 S10G17    29.96F WCI  15
ARBOR VITAE    PTSUNNY   27  22  83 SE13      29.96F WCI  16
WOODRUFF       PTSUNNY   27  22  83 SE13      29.96F WCI  16
RHINELANDER    PTSUNNY   27  20  75 S10G16    29.98F WCI  17
EAGLE RIVER    PTSUNNY   27  19  72 S10G16    29.98F WCI  18
LAND O LAKES   PTSUNNY   28  22  78 S9        29.98F WCI  19
PHILLIPS       PTSUNNY   26  22  85 S13       29.96F WCI  15
TOMAHAWK       PTSUNNY   28  21  74 SE7       29.99F WCI  21
MEDFORD        CLOUDY    24  21  88 SE10G17   29.98F WCI  13
MERRILL        PTSUNNY   29  21  70 S9        30.01F WCI  21
$$

WIZ029-030-035-036-043>047-282000-
CENTRAL WISCONSIN

CITY           SKY/WX    TMP DP  RH WIND       PRES   REMARKS
WAUSAU         PTSUNNY   27  20  75 S14       30.00F WCI  16
MOSINEE        NOT AVBL
MARSHFIELD     CLOUDY    25  22  88 SE14      30.00F FOG     WCI  13
STEVENS POINT  CLOUDY    25  20  80 S12G18    30.05F WCI  14
WAUPACA        PTSUNNY   33  22  64 SE10      30.09F WCI  25
WAUTOMA        NOT AVBL
WISC RAPIDS    CLOUDY    26  21  81 S9        30.04F HAZE    WCI  17
CAMP DOUGLAS   NOT AVBL
$$

WIZ011>013-019>022-031-037>040-048>050-282000-
NORTHEAST WISCONSIN

CITY           SKY/WX    TMP DP  RH WIND       PRES   REMARKS
ANTIGO         PTSUNNY   25  20  81 S13       30.03F WCI  14
SHAWANO        PTSUNNY   32  20  62 S8        30.11F WCI  25
OCONTO         PTSUNNY   31  23  72 S8        30.13F WCI  23
STURGEON BAY   CLOUDY    30  23  74 S14       30.14F WCI  20
GREEN BAY      PTSUNNY   31  23  72 S10       30.11F WCI  22
MANITOWOC      CLOUDY    30  27  86 S18       30.13F WCI  18
APPLETON       CLOUDY    30  19  64 S12       30.11F WCI  21
CLINTONVILLE   CLOUDY    30  21  69 S14       30.11F WCI  20
OSHKOSH        PTSUNNY   30  21  69 S14G22    30.10F WCI  19
$$

WIZ032>034-041-042-053>061-282000-
SOUTHWEST WISCONSIN

CITY           SKY/WX    TMP DP  RH WIND       PRES   REMARKS
LA CROSSE      CLOUDY    32  26  78 SE9       29.98F HAZE    WCI  24
SPARTA         CLOUDY    29  25  84 SE13      30.03F FOG     WCI  19
VIROQUA        CLOUDY    29  28  97 SE16      29.98F WCI  17
BOSCOBEL       PTSUNNY   34  23  64 SE9       30.02F WCI  27
PRAIRIE DU CHI PTSUNNY   34  23  65 SE13G20   29.99F WCI  25
PLATTEVILLE    CLOUDY    31  22  69 E16       30.02F WCI  20
$$

WIZ056-057-062-063-064-067-068-282000-
SOUTH CENTRAL WISCONSIN

CITY           SKY/WX    TMP DP  RH WIND       PRES   REMARKS
REEDSBURG      CLOUDY    28  25  86 SE7       30.05F WCI  21
BARABOO/DELLS  CLOUDY    28  24  83 S10G16    30.06F WCI  19
LONE ROCK      NOT AVBL
MINERAL POINT  PTSUNNY   32  23  69 SE16G22   30.02F WCI  21
MADISON        CLOUDY    31  21  66 S16       30.07F WCI  20
MIDDLETON      PTSUNNY   32  21  65 S12       30.08F WCI  23
WATERTOWN      PTSUNNY   32  21  63 S15       30.11F WCI  22
MONROE         PTSUNNY   32  23  69 SE17      30.07F WCI  21
JANESVILLE     SUNNY     34  21  60 S17       30.10F WCI  23
$$

WIZ051-052-058>065-066-070>072-282000-
SOUTHEAST WISCONSIN

CITY           SKY/WX    TMP DP  RH WIND       PRES   REMARKS
MILWAUKEE      PTSUNNY   34  17  50 S9        30.14F WCI  27
WAUKESHA       SUNNY     30  19  64 SE14      30.13F WCI  20
MILWAUKEE/TIMM SUNNY     34  18  51 S8        30.14F WCI  27
RACINE         MOSUNNY   31  19  61 S16       30.16F WCI  20
BURLINGTON     PTSUNNY   32  18  56 S9        30.14F WCI  24
KENOSHA        PTSUNNY   34  18  52 S12       30.14F WCI  25
FOND DU LAC    PTSUNNY   30  20  66 S13       30.10F WCI  20
SHEBOYGAN      PTSUNNY   31  23  72 S14       30.13F WCI  21
WEST BEND      PTSUNNY   32  21  64 S8        30.12F WCI  25
JUNEAU         PTSUNNY   31  20  64 S15       30.12F WCI  20
$$

LSZ147-162-282000-
LAKE SUPERIOR

STATION/POSITION TIME  TEMP    WIND        PRES    WAVE
                       AIR SEA DIR/SP/G            HT/PER
                 (UTC) (F)     (DEG/KT/KT) (MB)    (FT/S)
DEVILS ISLAND    1800   29     130/  8/ 10 1015.8F
PORT WING        1800   32     130/  1/  6 1014.6F
SAXON HARBOR     1800   33     170/  1/  7 1014.9F
$$

LMZ867-665-643>646-282000-
LAKE MICHIGAN

STATION/POSITION TIME  TEMP    WIND        PRES    WAVE
                       AIR SEA DIR/SP/G            HT/PER
                 (UTC) (F)     (DEG/KT/KT) (MB)    (FT/S)
NORTHPORT PIER   1807   29     150/  4/  8 1021.3F
SISTER BAY       1743   32     190/ 11/ 13   N/A
KEWAUNEE LAKESHO 1800   30                 1020.5F
SHEBOYGAN LAKESH 1800   29     180/ 21/ 23 1022.2F
PORT WASHINGTON  1840   32     170/ 16/ 20 1021.7F
MILWAUKEE LAKESH 1800   30     150/ 17/ 19   N/A
KENOSHA   LAKESH 1800   30     170/ 18/ 19 1021.7F
$$

TC  - TEMPERATURE IN CELSIUS
VSB - VISIBILITY IN STATUTE MILES
WCI - WIND CHILL INDEX
HX  - HEAT INDEX




USA.gov is the U.S. government's official web portal to all federal, state and local government web resources and services.